STARLINK-1573, 46061

Orbit data source: Space-Track

STARLINK-1573, 46061 is a payload satellite owned by SpaceX/Seattle (US) in LEO that was launched on Fri, 07 Aug 2020 UTC via an FALCON 9 launch vehicle from the Air Force Eastern Test Range (AFETR). Payload-class satellites include a variety of spacecraft equipped with specific instruments for various scientific and technological missions. These include communications satellites like Starlink; space stations such as the ISS; scientific satellites like the Hubble; Earth observation satellites from companies like Planet Labs, Umbra, and HawkEye 360; GPS; miniature CubeSats for education and research; and military/defense satellites.

Loading next visibility...
Identifier
46061, 2020-055AL
Orbit
LEO
Country
Flag of USUS
Related business
Manufacturer
SpaceX/Seattle
Mission
Operational Commercial Communications
Bus & Motor
STARLINK, Unknown motor
Mass
260 kg wet, ~248 kg dry
Launch date (UTC)
2020-08-07 (6 years ago)
Launch vehicle
FALCON 9
Launch site
Air Force Eastern Test Range (AFETR)
Object type
Payload
Rocket body
Debris
Shape & HBR
Box + 1 Pan, 10.1 m
Radar Cross Section
13.562 m², Large (>1 m²)

Expand to show TLE details & history
Last TLE update: 6 days ago

TLE from 6 days ago
0 STARLINK-1573
1 46061U 20055AL  26155.05730251  .00004144  00000-0  14514-3 0  9992
2 46061  53.1605  72.1393 0001350  76.4176 283.6976 15.31720536322308
Epoch: 2026-06-04T01:22Z
TLE epoch observation values (Epoch: 2026-06-04T01:22:30.936Z)
Latitude
-0.00002°
Longitude
159.00335°
Altitude
471.36 km
Speed
7.632 km/s
True Right ascension
04h 48m 33s
True Declination
0° 00' 00"
Sunlit
Object was in daylight at epoch
Visualization orbit readout
Latitude
Unknown
Longitude
Unknown
Altitude
Unknown
Speed
Unknown
Apparent Right ascension
Unknown
Apparent Declination
Unknown
Sunlit
N/A
Visualization observer readout
Local Sidereal Time
13:34:42
Azimuth
Unknown
Elevation
Unknown
Doppler factor
Unknown
Orbital elements
Apogee altitude
471.86 km
Perigee altitude
470.011 km
Semi-major axis
6,849.072 km
Eccentricity
0.00014
Inclination
53.1605°
RAAN
72.1393°
Arg. of periapsis
76.4176°
True anomaly
283.68257°
Mean anomaly
283.6976°
Eccentric anomaly
283.69008°
Mean motion
3.82909 °/min
Orbital period
94.02 mins
BSTAR
0.00014514
Loading maneuver chart data...
Computing Atmospheric mass density...
Loading historical data...
Loading historical data...
Loading historical data...
Loading historical data...
Loading historical data...
Loading historical data...
Loading historical data...

Documentation

Showing up to 5 results
|